Dania, FL

11:47 PM EST on February 25, 2017 (GMT -0500)
Fort Lauderdale-Hollywood International

Weather History for KFLL - May, 2012

Change the Weather History Date:

Tuesday, May 1, 2012

  Actual Average Record
Temperature  
Mean Temperature 79 °F 78 °F  
Max Temperature 82 °F 84 °F 92 °F (1971)
Min Temperature 75 °F 72 °F 56 °F (1999)
Degree Days  
Heating Degree Days 0 0  
Month to date heating degree days 0 0  
Since 1 July heating degree days 65 112  
Cooling Degree Days 14 13  
Month to date cooling degree days 14 13  
Year to date cooling degree days 1074 960  
Growing Degree Days 28 (Base 50)    
Moisture  
Dew Point 69 °F    
Average Humidity 76    
Maximum Humidity 82    
Minimum Humidity 69    
Precipitation  
Precipitation 0.00 in 0.06 in 2.70 in (2013)
Month to date precipitation 0.00 0.06  
Year to date precipitation 8.51 12.90  
Snow  
Snow 0.00 in - - ()
Month to date snowfall 0.0  
Since 1 July snowfall 0.0  
Snow Depth 0.00 in    
Sea Level Pressure  
Sea Level Pressure 30.03 in    
Wind  
Wind Speed 17 mph (ESE)    
Max Wind Speed 24 mph    
Max Gust Speed 31 mph    
Visibility 10 miles    
Events      
T = Trace of Precipitation, MM = Missing Value Source: NWS Daily Summary

Daily Weather History Graph

Daily Weather History Graph

Search for Another Location

Airport or City:

Trip Planner

Search our weather history database for the weather conditions in past years. The results will help you decide how hot, cold, wet, or windy it might be!

Date:

Astronomy

May. 01, 2012 Rise Set
Actual Time 6:43 AM EDT 7:52 PM EDT
Civil Twilight 6:18 AM EDT 8:16 PM EDT
Nautical Twilight 5:49 AM EDT 8:45 PM EDT
Astronomical Twilight 5:20 AM EDT 9:15 PM EDT
Moon 3:20 PM EDT (5/1) 3:09 AM EDT (5/1)
Length of Visible Light 13h 58m
Length of Day
13h 09m
Waxing Gibbous, 73% of the Moon is Illuminated
May 1
Waxing Gibbous
May 5
Full
May 12
Last Quarter
May 20
New
May 28
First Quarter

Hourly Weather History & Observations

Time (EDT) Temp. Heat Index Dew Point Humidity Pressure Visibility Wind Dir Wind Speed Gust Speed Precip Events Conditions
12:51 AM 75.2 °F - 68.0 °F 78% 30.04 in 10.0 mi ESE 16.1 mph 26.5 mph N/A   Mostly Cloudy
12:53 AM 75.0 °F - 68.0 °F 79% 30.04 in 10.0 mi ESE 16.1 mph - N/A   Mostly Cloudy
1:53 AM 75.0 °F - 66.9 °F 76% 30.01 in 10.0 mi ESE 24.2 mph 29.9 mph N/A   Overcast
2:53 AM 75.0 °F - 66.9 °F 76% 30.00 in 10.0 mi ESE 18.4 mph 27.6 mph N/A   Overcast
3:53 AM 75.0 °F - 66.9 °F 76% 30.00 in 10.0 mi ESE 17.3 mph 25.3 mph N/A   Mostly Cloudy
4:31 AM 75.2 °F - 68.0 °F 78% 30.00 in 10.0 mi ESE 16.1 mph 25.3 mph N/A   Mostly Cloudy
4:53 AM 75.9 °F - 69.1 °F 79% 30.00 in 10.0 mi ESE 12.7 mph 25.3 mph N/A   Mostly Cloudy
5:17 AM 75.2 °F - 68.0 °F 78% 30.00 in 10.0 mi East 19.6 mph 26.5 mph N/A   Scattered Clouds
5:53 AM 75.9 °F - 68.0 °F 76% 30.01 in 10.0 mi East 18.4 mph 25.3 mph N/A   Mostly Cloudy
6:41 AM 75.2 °F - 69.8 °F 83% 30.02 in 10.0 mi ESE 18.4 mph 26.5 mph N/A   Mostly Cloudy
6:53 AM 75.9 °F - 69.1 °F 79% 30.02 in 10.0 mi ESE 17.3 mph - N/A   Mostly Cloudy
7:53 AM 77.0 °F - 69.1 °F 76% 30.04 in 10.0 mi ESE 18.4 mph 26.5 mph N/A   Overcast
8:44 AM 78.8 °F - 69.8 °F 74% 30.04 in 10.0 mi ESE 18.4 mph 26.5 mph N/A   Mostly Cloudy
8:53 AM 78.1 °F - 69.1 °F 74% 30.05 in 10.0 mi ESE 20.7 mph 27.6 mph N/A   Mostly Cloudy
9:22 AM 78.8 °F - 69.8 °F 74% 30.05 in 10.0 mi ESE 20.7 mph 27.6 mph N/A   Overcast
9:32 AM 78.8 °F - 69.8 °F 74% 30.06 in 10.0 mi ESE 19.6 mph 25.3 mph N/A   Mostly Cloudy
9:53 AM 78.1 °F - 70.0 °F 76% 30.06 in 10.0 mi ESE 17.3 mph - N/A   Mostly Cloudy
10:53 AM 80.1 °F 83.2 °F 70.0 °F 71% 30.07 in 10.0 mi ESE 17.3 mph - N/A   Mostly Cloudy
11:53 AM 79.0 °F - 70.0 °F 74% 30.08 in 10.0 mi ESE 18.4 mph - N/A   Mostly Cloudy
12:53 PM 78.1 °F - 70.0 °F 76% 30.06 in 10.0 mi East 17.3 mph - N/A   Overcast
1:53 PM 79.0 °F - 70.0 °F 74% 30.06 in 10.0 mi ESE 18.4 mph - N/A   Mostly Cloudy
2:53 PM 80.1 °F 82.9 °F 69.1 °F 69% 30.04 in 10.0 mi ESE 16.1 mph 24.2 mph N/A   Mostly Cloudy
3:53 PM 80.1 °F 83.2 °F 70.0 °F 71% 30.02 in 10.0 mi ESE 16.1 mph 23.0 mph N/A   Overcast
4:53 PM 80.1 °F 83.2 °F 70.0 °F 71% 30.01 in 10.0 mi ESE 16.1 mph 26.5 mph N/A   Mostly Cloudy
5:53 PM 80.1 °F 83.2 °F 70.0 °F 71% 30.01 in 10.0 mi East 18.4 mph 27.6 mph N/A   Scattered Clouds
6:53 PM 79.0 °F - 70.0 °F 74% 30.01 in 10.0 mi East 15.0 mph 24.2 mph N/A   Scattered Clouds
7:53 PM 78.1 °F - 69.1 °F 74% 30.01 in 10.0 mi East 17.3 mph 24.2 mph N/A   Scattered Clouds
8:53 PM 77.0 °F - 69.1 °F 76% 30.03 in 10.0 mi East 18.4 mph - N/A   Scattered Clouds
9:53 PM 77.0 °F - 70.0 °F 79% 30.05 in 10.0 mi ESE 13.8 mph 23.0 mph N/A   Scattered Clouds
10:53 PM 77.0 °F - 70.0 °F 79% 30.06 in 10.0 mi ESE 15.0 mph - N/A   Scattered Clouds
11:53 PM 75.9 °F - 69.1 °F 79% 30.06 in 10.0 mi ESE 15.0 mph - N/A   Scattered Clouds